FW7692 Weather Reports


time (UTC)temp
C
wind
direction
speed
KPH
gust
KPH
rain 1hr
cm
rain 24hr
cm
rain mn
cm
humidity
%
barometer
mb
20260504001019 12 192 8.0 16.1 0.00 0.03 0.03 56 1008.7
20260504000019 12 206 8.0 19.3 0.00 0.03 0.03 56 1008.7
20260503235019 12 192 8.0 16.1 0.00 0.03 0.03 56 1008.8
20260503234019 12 205 8.0 19.3 0.00 0.03 0.03 56 1009.0
20260503233017 12 207 4.8 11.3 0.00 0.03 0.03 58 1009.1
20260503232016 12 247 3.2 11.3 0.00 0.03 0.03 60 1009.2
20260503231037 12 251 3.2 12.9 0.00 0.03 0.03 61 1009.2
20260503230017 12 210 4.8 14.5 0.00 0.03 0.03 61 1009.2
20260503225017 12 198 3.2 11.3 0.03 0.03 0.03 62 1009.3
20260503224037 12 217 6.4 12.9 0.03 0.03 0.03 62 1009.3
20260503223017 12 255 3.2 9.7 0.00 0.03 0.03 63 1009.4
20260503222018 11 238 4.8 20.9 0.00 0.03 0.03 64 1009.5
20260503221038 11 227 6.4 17.7 0.00 0.03 0.03 65 1009.6
20260503220018 11 227 9.7 20.9 0.00 0.03 0.03 64 1009.5
20260503215018 11 200 6.4 14.5 0.00 0.03 0.03 65 1009.3
20260503214039 11 214 8.0 19.3 0.00 0.03 0.03 64 1009.2
20260503213019 11 196 12.9 24.1 0.00 0.03 0.03 64 1009.0
20260503212039 12 199 9.7 29.0 0.00 0.03 0.03 63 1008.8
20260503211019 11 206 11.3 20.9 0.00 0.03 0.03 63 1008.8
20260503210100 11 198 11.3 22.5 0.00 0.03 0.03 63 1008.9
20260503205020 11 190 9.7 20.9 0.00 0.03 0.03 64 1009.0
20260503204019 11 195 9.7 16.1 0.00 0.03 0.03 64 1009.1
20260503203036 11 189 9.7 19.3 0.00 0.03 0.03 64 1009.2
20260503202017 11 189 11.3 25.7 0.00 0.03 0.03 64 1009.3
20260503201037 11 193 11.3 19.3 0.00 0.03 0.03 64 1009.4
20260503200017 11 190 11.3 22.5 0.00 0.03 0.03 63 1009.5
20260503195017 11 198 11.3 19.3 0.00 0.03 0.03 62 1009.7
20260503194037 12 198 11.3 22.5 0.00 0.03 0.03 61 1009.7
20260503193017 12 192 12.9 24.1 0.00 0.03 0.00 59 1009.9
20260503192018 12 187 14.5 25.7 0.00 0.03 0.00 60 1010.0
20260503191018 12 194 12.9 20.9 0.00 0.03 0.00 58 1010.2
20260503190058 11 209 11.3 22.5 0.00 0.03 0.00 58 1010.3
20260503185018 11 194 11.3 30.6 0.00 0.03 0.00 58 1010.5
20260503184019 11 195 11.3 25.7 0.00 0.03 0.00 58 1010.7
20260503183039 11 198 12.9 30.6 0.00 0.03 0.00 56 1010.9
20260503182019 11 202 11.3 25.7 0.00 0.00 0.00 54 1010.8
20260503181019 11 199 11.3 22.5 0.00 0.00 0.00 52 1011.1
20260503180040 11 207 12.9 22.5 0.00 0.00 0.00 48 1011.0
20260503175039 11 185 16.1 25.7 0.00 0.00 0.00 52 1011.1
20260503174036 11 188 12.9 30.6 0.00 0.00 0.00 54 1011.4
20260503173057 10 184 14.5 29.0 0.00 0.00 0.00 61 1011.5
20260503172017 10 186 12.9 24.1 0.00 0.00 0.00 62 1011.8
20260503171017 10 193 9.7 17.7 0.00 0.00 0.00 59 1012.0
20260503131018 7 189 9.7 19.3 0.00 0.00 0.00 75 1013.1
20260503081017 0 331 0.0 3.2 0.00 0.00 0.00 91 1013.9
20260503072018 1 228 0.0 4.8 0.00 0.00 0.00 85 1013.7
20260503071018 1 315 1.6 4.8 0.00 0.00 0.00 86 1013.7
20260503055040 1 326 0.0 3.2 0.00 0.00 0.00 84 1014.1
20260503054016 1 264 0.0 3.2 0.00 0.00 0.00 84 1014.0
20260503053037 1 187 1.6 4.8 0.00 0.00 0.00 84 1014.1
20260503052017 1 265 0.0 3.2 0.00 0.00 0.00 84 1014.2
20260503051016 2 303 0.0 3.2 0.00 0.00 0.00 83 1014.3
20260503050017 2 302 0.0 1.6 0.00 0.00 0.00 85 1014.3
20260503045017 2 250 1.6 3.2 0.00 0.00 0.00 84 1014.4
20260503044017 2 181 1.6 3.2 0.00 0.00 0.00 83 1014.4
20260503043058 2 278 1.6 3.2 0.00 0.00 0.00 84 1014.4
20260503042018 2 249 0.0 3.2 0.00 0.00 0.00 89 1014.5
20260503041038 2 345 0.0 1.6 0.00 0.00 0.00 89 1014.6
20260503040018 2 354 0.0 3.2 0.00 0.00 0.00 90 1014.6
20260503035018 2 347 0.0 3.2 0.00 0.00 0.00 89 1014.6
20260503034018 2 346 0.0 3.2 0.00 0.00 0.00 89 1014.7
20260503033019 2 348 0.0 3.2 0.00 0.00 0.00 87 1014.8
20260503032039 3 9 0.0 3.2 0.00 0.00 0.00 86 1014.8
20260503031019 3 49 0.0 1.6 0.00 0.00 0.00 85 1014.8
20260503030040 3 56 0.0 1.6 0.00 0.00 0.00 84 1014.8
20260503025039 3 18 0.0 1.6 0.00 0.00 0.00 83 1014.9
20260503024019 4 67 0.0 1.6 0.00 0.00 0.00 81 1014.9
20260503023039 4 91 0.0 1.6 0.00 0.00 0.00 80 1014.9
20260503022017 4 144 1.6 3.2 0.00 0.00 0.00 79 1015.0
20260503021017 4 135 1.6 3.2 0.00 0.00 0.00 77 1015.1
20260503020017 5 147 1.6 4.8 0.00 0.00 0.00 75 1015.1
20260503015017 5 158 1.6 3.2 0.00 0.00 0.00 74 1015.1
20260503014037 5 201 1.6 3.2 0.00 0.00 0.00 73 1015.1
20260503013038 5 225 1.6 3.2 0.00 0.00 0.00 71 1015.1
20260503012037 5 283 1.6 6.4 0.00 0.00 0.00 72 1015.1
20260503011018 5 294 0.0 3.2 0.00 0.00 0.00 72 1015.0
20260503010019 5 230 3.2 8.0 0.00 0.00 0.00 72 1015.1
20260503005039 5 227 3.2 6.4 0.00 0.00 0.00 74 1015.0
20260503004019 5 301 4.8 12.9 0.00 0.00 0.00 75 1015.0
20260503003039 5 321 1.6 6.4 0.00 0.00 0.00 76 1015.0
20260503002018 5 273 1.6 6.4 0.00 0.00 0.00 75 1014.9